FW9783 Weather Reports


time (UTC)temp
F
wind
direction
speed
knots
gust
knots
rain 1hr
in
rain 24hr
in
rain mn
in
humidity
%
barometer
mb
20260505214304 63 155 0.0 1.7 0.00 0.00 0.00 41 1012.1
20260505214230 63 160 0.0 0.0 0.00 0.00 0.00 41 1016.5
20260505213804 63 218 0.0 1.7 0.00 0.00 0.00 41 1012.1
20260505213727 63 223 0.0 0.0 0.00 0.00 0.00 41 1016.5
20260505213303 64 38 0.0 2.6 0.00 0.00 0.00 40 1012.5
20260505213224 64 38 0.0 0.0 0.00 0.00 0.00 40 1016.9
20260505212804 63 235 0.0 6.1 0.00 0.00 0.00 41 1012.6
20260505212720 63 239 0.0 0.0 0.00 0.00 0.00 41 1017.0
20260505212305 63 140 0.0 6.1 0.00 0.00 0.00 41 1012.4
20260505212217 63 137 0.0 0.0 0.00 0.00 0.00 41 1016.7
20260505211714 63 147 0.0 0.0 0.00 0.00 0.00 40 1017.1
20260505211212 63 223 0.0 0.0 0.00 0.00 0.00 42 1017.4
20260505210708 63 189 1.7 9.6 0.00 0.00 0.00 41 1017.3
20260505210303 63 116 0.0 1.7 0.00 0.00 0.00 40 1012.8
20260505210205 63 116 0.0 0.0 0.00 0.00 0.00 40 1017.3
20260505205804 64 157 0.0 1.7 0.00 0.00 0.00 40 1012.8
20260505205702 64 158 0.0 1.7 0.00 0.00 0.00 40 1017.3
20260505205305 63 143 0.0 0.0 0.00 0.00 0.00 42 1012.9
20260505205200 63 136 0.0 0.0 0.00 0.00 0.00 42 1017.4
20260505204804 62 100 0.0 4.3 0.00 0.00 0.00 42 1013.0
20260505204656 62 100 0.0 0.0 0.00 0.00 0.00 42 1017.5
20260505204304 61 74 0.0 4.3 0.00 0.00 0.00 43 1012.9
20260505204155 62 72 0.0 0.0 0.00 0.00 0.00 43 1017.4
20260505203804 63 21 0.0 2.6 0.00 0.00 0.00 41 1012.9
20260505203652 63 22 0.0 0.0 0.00 0.00 0.00 41 1017.4
20260505203148 63 171 0.0 0.0 0.00 0.00 0.00 41 1017.6
20260505202644 63 19 0.0 1.7 0.00 0.00 0.00 42 1017.6
20260505202140 63 219 0.0 0.9 0.00 0.00 0.00 42 1017.0
20260505201803 62 86 0.0 6.1 0.00 0.00 0.00 42 1013.1
20260505201637 62 165 0.0 0.0 0.00 0.00 0.00 42 1017.8
20260505201303 62 37 0.0 6.1 0.00 0.00 0.00 41 1013.5
20260505201135 62 69 0.0 1.7 0.00 0.00 0.00 41 1017.8
20260505200633 62 28 0.0 0.0 0.00 0.00 0.00 43 1017.7
20260505200304 61 211 0.0 6.1 0.00 0.00 0.00 42 1013.3
20260505200129 61 57 0.0 0.0 0.00 0.00 0.00 42 1017.6
20260505195804 61 77 0.0 6.1 0.00 0.00 0.00 43 1013.1
20260505195625 61 187 0.0 0.0 0.00 0.00 0.00 42 1017.8
20260505195305 62 78 0.0 7.8 0.00 0.00 0.00 42 1013.1
20260505195123 62 355 0.0 0.0 0.00 0.00 0.00 42 1017.4
20260505194803 61 74 0.0 7.8 0.00 0.00 0.00 42 1012.9
20260505194620 61 202 0.0 4.3 0.00 0.00 0.00 43 1017.5
20260505194116 61 90 0.0 2.6 0.00 0.00 0.00 42 1017.4
20260505193804 61 17 0.0 13.9 0.00 0.00 0.00 42 1013.1
20260505193613 61 93 0.0 0.0 0.00 0.00 0.00 42 1017.4
20260505193303 61 62 0.0 13.9 0.00 0.00 0.00 42 1013.1
20260505193110 61 63 0.0 13.9 0.00 0.00 0.00 41 1017.6
20260505192804 61 95 0.0 6.1 0.00 0.00 0.00 41 1013.3
20260505192609 62 335 0.0 0.0 0.00 0.00 0.00 41 1017.9
20260505192305 61 80 0.0 14.8 0.00 0.00 0.00 41 1013.4
20260505192105 61 218 0.0 4.3 0.00 0.00 0.00 42 1017.9
20260505191804 61 82 0.9 14.8 0.00 0.00 0.00 42 1013.4
20260505191604 61 39 0.0 0.0 0.00 0.00 0.00 43 1017.8
20260505191101 62 45 6.1 14.8 0.00 0.00 0.00 39 1017.7
20260505190804 63 109 0.0 6.1 0.00 0.00 0.00 44 1013.2
20260505190555 62 130 0.0 0.0 0.00 0.00 0.00 41 1017.8
20260505190304 62 87 0.0 6.1 0.00 0.00 0.00 41 1013.3
20260505190052 62 65 0.0 1.7 0.00 0.00 0.00 43 1017.7
20260505185804 62 306 0.0 7.0 0.00 0.00 0.00 41 1013.1
20260505185549 62 240 0.0 0.0 0.00 0.00 0.00 42 1017.7
20260505185305 61 279 0.0 7.0 0.00 0.00 0.00 44 1013.4
20260505185045 62 71 0.0 7.0 0.00 0.00 0.00 42 1017.8
20260505184803 62 58 0.0 10.4 0.00 0.00 0.00 42 1013.2
20260505184542 61 107 0.0 0.0 0.00 0.00 0.00 44 1018.4
20260505184303 61 45 0.0 10.4 0.00 0.00 0.00 43 1013.5
20260505184039 62 51 0.0 0.9 0.00 0.00 0.00 43 1018.3
20260505183804 62 60 0.0 7.8 0.00 0.00 0.00 41 1013.5
20260505183535 63 69 0.9 4.3 0.00 0.00 0.00 41 1017.7
20260505183304 62 310 0.9 12.2 0.00 0.00 0.00 40 1013.3
20260505183033 61 95 0.0 1.7 0.00 0.00 0.00 41 1018.2
20260505182804 62 85 0.0 12.2 0.00 0.00 0.00 42 1013.2
20260505182529 62 13 0.0 0.0 0.00 0.00 0.00 42 1017.9
20260505182306 62 15 0.0 12.2 0.00 0.00 0.00 41 1013.1
20260505182026 62 117 0.0 0.0 0.00 0.00 0.00 43 1017.8
20260505181522 60 28 0.0 0.0 0.00 0.00 0.00 44 1018.3
20260505181305 61 48 0.9 6.1 0.00 0.00 0.00 42 1013.5
20260505181020 61 43 0.0 0.0 0.00 0.00 0.00 44 1018.4
20260505180515 61 250 0.0 1.7 0.00 0.00 0.00 42 1018.2
20260505180304 60 168 0.0 11.3 0.00 0.00 0.00 44 1013.7
20260505180014 61 50 0.9 9.6 0.00 0.00 0.00 43 1018.3
20260505175803 60 78 0.0 11.3 0.00 0.00 0.00 45 1013.7
20260505175508 60 41 0.0 0.9 0.00 0.00 0.00 45 1018.5
20260505175305 59 78 0.9 11.3 0.00 0.00 0.00 46 1013.7
20260505175006 58 269 0.0 0.0 0.00 0.00 0.00 48 1018.4
20260505174804 59 34 0.0 5.2 0.00 0.00 0.00 47 1013.8
20260505174503 59 56 0.0 0.9 0.00 0.00 0.00 47 1018.5
20260505174303 59 337 0.0 8.7 0.00 0.00 0.00 46 1013.9
20260505173958 59 62 0.0 0.0 0.00 0.00 0.00 46 1017.9
20260505173803 58 341 0.0 8.7 0.00 0.00 0.00 46 1013.4
20260505173455 59 58 0.0 2.6 0.00 0.00 0.00 46 1018.3
20260505173303 59 65 0.0 12.2 0.00 0.00 0.00 44 1013.5
20260505172952 60 358 0.9 4.3 0.00 0.00 0.00 44 1018.0
20260505172804 59 78 0.0 12.2 0.00 0.00 0.00 45 1013.6
20260505172451 59 56 0.0 6.1 0.00 0.00 0.00 46 1018.0
20260505172306 59 50 0.9 12.2 0.00 0.00 0.00 44 1013.5
20260505171950 59 68 0.0 2.6 0.00 0.00 0.00 44 1018.3
20260505171447 59 294 0.0 0.9 0.00 0.00 0.00 45 1018.2
20260505171304 59 190 0.0 12.2 0.00 0.00 0.00 46 1013.8
20260505170943 59 54 0.0 0.0 0.00 0.00 0.00 46 1018.3
20260505170804 59 43 0.0 12.2 0.00 0.00 0.00 47 1013.6
20260505170440 59 55 0.0 0.9 0.00 0.00 0.00 47 1018.0
20260505170304 59 82 0.0 17.4 0.00 0.00 0.00 47 1013.6
20260505165936 59 68 0.9 5.2 0.00 0.00 0.00 46 1018.0
20260505165804 58 103 0.0 17.4 0.00 0.00 0.00 48 1013.6
20260505165432 58 196 0.0 2.6 0.00 0.00 0.00 48 1018.0
20260505165306 58 51 0.9 13.9 0.00 0.00 0.00 48 1013.5
20260505164927 57 63 0.0 4.3 0.00 0.00 0.00 49 1018.0
20260505164804 56 265 0.0 17.4 0.00 0.00 0.00 50 1013.4
20260505164424 57 54 0.9 12.2 0.00 0.00 0.00 50 1018.0
20260505164304 56 39 0.9 17.4 0.00 0.00 0.00 50 1013.4
20260505163922 57 81 0.0 4.3 0.00 0.00 0.00 49 1017.9
20260505163421 57 64 0.0 7.8 0.00 0.00 0.00 49 1017.9
20260505162920 57 50 0.9 7.8 0.00 0.00 0.00 49 1018.0
20260505162804 57 101 0.0 7.8 0.00 0.00 0.00 48 1013.5
20260505162415 57 66 0.0 1.7 0.00 0.00 0.00 48 1018.2
20260505162306 57 74 0.0 7.0 0.00 0.00 0.00 48 1013.6
20260505161912 57 338 0.9 7.0 0.00 0.00 0.00 49 1018.3
20260505161803 57 33 0.9 11.3 0.00 0.00 0.00 48 1013.6
20260505161409 56 96 0.0 7.0 0.00 0.00 0.00 49 1017.9
20260505161303 57 74 0.0 11.3 0.00 0.00 0.00 47 1013.3
20260505160906 57 230 0.0 0.9 0.00 0.00 0.00 48 1017.9
20260505160803 57 112 0.0 5.2 0.00 0.00 0.00 48 1013.3
20260505160404 57 87 0.9 4.3 0.00 0.00 0.00 48 1017.8
20260505160304 56 120 0.0 13.0 0.00 0.00 0.00 49 1013.2
20260505153343 55 187 0.0 1.7 0.00 0.00 0.00 50 1017.6
20260505153303 55 252 0.0 12.2 0.00 0.00 0.00 50 1013.1
20260505152840 56 84 2.6 12.2 0.00 0.00 0.00 49 1017.8
20260505152803 56 129 0.9 12.2 0.00 0.00 0.00 48 1013.1
20260505152337 56 25 0.0 4.3 0.00 0.00 0.00 49 1017.6
20260505152305 56 59 0.0 10.4 0.00 0.00 0.00 49 1013.0
20260505151832 56 102 0.0 0.0 0.00 0.00 0.00 51 1017.8
20260505151803 55 19 0.0 10.4 0.00 0.00 0.00 51 1013.1
20260505151329 55 48 0.0 5.2 0.00 0.00 0.00 51 1017.5
20260505151304 55 86 1.7 10.4 0.00 0.00 0.00 50 1013.1
20260505150826 56 5 0.9 6.1 0.00 0.00 0.00 48 1017.5
20260505150804 56 54 0.0 7.0 0.00 0.00 0.00 48 1012.8
20260505150323 56 207 0.0 0.0 0.00 0.00 0.00 48 1017.3
20260505150304 55 234 0.0 7.0 0.00 0.00 0.00 49 1012.9
20260505140304 53 75 0.0 11.3 0.00 0.00 0.00 50 1012.5
20260505140252 53 19 0.0 0.9 0.00 0.00 0.00 50 1016.9
20260505130303 52 303 0.0 7.8 0.00 0.00 0.00 53 1010.9
20260505130216 52 303 0.0 0.0 0.00 0.00 0.00 53 1015.1
20260505124803 52 82 0.0 4.3 0.00 0.00 0.00 53 1010.9
20260505124706 52 82 0.0 4.3 0.00 0.00 0.00 53 1015.1
20260505124304 52 55 0.0 5.2 0.00 0.00 0.00 54 1010.9
20260505124202 52 55 0.0 0.0 0.00 0.00 0.00 54 1015.1
20260505123804 52 201 0.0 5.2 0.00 0.00 0.00 53 1010.7
20260505123658 52 203 0.0 0.0 0.00 0.00 0.00 53 1014.9
20260505123304 52 262 0.0 5.2 0.00 0.00 0.00 53 1010.8
20260505123156 52 255 0.0 0.0 0.00 0.00 0.00 53 1015.0
20260505122804 53 218 0.0 7.0 0.00 0.00 0.00 53 1010.8
20260505122652 53 218 0.0 1.7 0.00 0.00 0.00 53 1015.0
20260505122305 53 47 0.9 7.0 0.00 0.00 0.00 53 1010.6
20260505122149 53 48 1.7 5.2 0.00 0.00 0.00 53 1014.8
20260505121804 54 61 0.9 7.0 0.00 0.00 0.00 53 1010.5
20260505121646 54 79 0.9 4.3 0.00 0.00 0.00 53 1014.7
20260505121143 54 7 0.0 0.0 0.00 0.00 0.00 53 1014.7
20260505120804 54 89 0.0 2.6 0.00 0.00 0.00 53 1010.2
20260505120639 54 204 0.0 0.0 0.00 0.00 0.00 53 1014.5
20260505120135 54 353 0.0 0.0 0.00 0.00 0.00 53 1014.1
20260505115629 54 259 0.0 0.0 0.00 0.00 0.00 53 1014.4
20260505115305 54 329 0.0 7.8 0.00 0.00 0.00 53 1010.2
20260505115127 54 292 0.0 0.0 0.00 0.00 0.00 53 1014.4
20260505114804 54 239 0.9 7.8 0.00 0.00 0.00 53 1010.0
20260505114624 54 328 2.6 7.8 0.00 0.00 0.00 53 1013.9
20260505114304 54 58 0.0 5.2 0.00 0.00 0.00 53 1009.8
20260505114120 54 57 0.0 0.0 0.00 0.00 0.00 53 1013.8
20260505113803 54 216 0.0 6.1 0.00 0.00 0.00 53 1009.9
20260505113617 54 207 0.0 5.2 0.00 0.00 0.00 53 1014.0
20260505113304 54 295 0.0 6.1 0.00 0.00 0.00 53 1009.7
20260505113114 55 347 0.0 2.6 0.00 0.00 0.00 53 1014.0
20260505112804 55 229 1.7 6.1 0.00 0.00 0.00 53 1010.1
20260505112610 55 180 2.6 6.1 0.00 0.00 0.00 53 1014.2
20260505112305 55 289 0.0 6.1 0.00 0.00 0.00 54 1009.9
20260505112109 55 206 0.0 0.9 0.00 0.00 0.00 54 1014.2
20260505111804 55 200 0.9 6.1 0.00 0.00 0.00 54 1009.9
20260505111607 55 76 0.9 1.7 0.00 0.00 0.00 54 1014.2
20260505111304 55 131 0.0 6.1 0.00 0.00 0.00 55 1009.9
20260505111103 55 31 0.0 6.1 0.00 0.00 0.00 55 1014.0
20260505110804 55 57 0.0 4.3 0.00 0.00 0.00 57 1009.7
20260505110600 56 325 0.0 4.3 0.00 0.00 0.00 57 1013.7
20260505102033 59 335 1.7 4.3 0.00 0.00 0.00 53 1013.6
20260505101804 59 124 0.9 13.0 0.00 0.00 0.00 53 1009.5
20260505101531 59 359 0.9 12.2 0.00 0.00 0.00 52 1013.6
20260505101027 59 328 3.5 13.0 0.00 0.00 0.00 51 1013.8
20260505100804 60 351 1.7 15.6 0.00 0.00 0.00 51 1009.5
20260505100524 60 285 2.6 7.8 0.00 0.00 0.00 50 1013.6
20260505100021 61 341 4.3 11.3 0.00 0.00 0.00 47 1013.3
20260505095804 61 1 5.2 20.0 0.00 0.00 0.00 44 1009.3
20260505095517 62 9 0.0 4.3 0.00 0.00 0.00 42 1013.2
20260505095305 62 338 0.9 20.0 0.00 0.00 0.00 40 1009.1
20260505095014 63 197 2.6 20.0 0.00 0.00 0.00 38 1012.8
20260505094803 63 350 1.7 11.3 0.00 0.00 0.00 36 1008.9
20260505094510 64 330 0.9 8.7 0.00 0.00 0.00 34 1013.0
20260505094304 64 354 0.9 11.3 0.00 0.00 0.00 33 1008.8
20260505094007 64 329 0.9 5.2 0.00 0.00 0.00 31 1012.6
20260505093804 65 325 1.7 11.3 0.00 0.00 0.00 30 1008.5
20260505093503 65 300 0.0 4.3 0.00 0.00 0.00 29 1012.3
20260505093000 66 22 0.0 7.0 0.00 0.00 0.00 26 1012.2
20260505092804 67 321 1.7 13.9 0.00 0.00 0.00 25 1008.3
20260505092458 68 356 0.0 2.6 0.00 0.00 0.00 24 1012.1
20260505091955 68 273 0.0 6.1 0.00 0.00 0.00 23 1012.1
20260505091804 69 295 0.0 18.2 0.00 0.00 0.00 23 1008.0
20260505091453 69 334 0.9 2.6 0.00 0.00 0.00 23 1011.8
20260505091304 69 33 0.0 18.2 0.00 0.00 0.00 23 1008.0
20260505090951 69 10 0.0 1.7 0.00 0.00 0.00 23 1011.7
20260505090448 68 310 1.7 4.3 0.00 0.00 0.00 24 1011.8
20260505090304 68 309 0.0 4.3 0.00 0.00 0.00 25 1007.7
20260505085945 68 327 0.0 0.0 0.00 0.00 0.00 25 1011.3
20260505085443 67 263 0.0 0.0 0.00 0.00 0.00 26 1011.4
20260505085305 67 237 0.0 7.8 0.00 0.00 0.00 26 1007.6
20260505084941 67 194 0.0 7.8 0.00 0.00 0.00 26 1011.2
20260505084439 68 206 0.0 2.6 0.00 0.00 0.00 26 1010.9
20260505083937 68 273 0.0 0.0 0.00 0.00 0.00 26 1011.1
20260505083803 67 126 0.0 0.9 0.00 0.00 0.00 26 1007.1
20260505083434 68 205 0.0 0.0 0.00 0.00 0.00 26 1011.0
20260505083303 68 267 0.0 6.1 0.00 0.00 0.00 26 1006.9
20260505082930 68 176 0.0 0.9 0.00 0.00 0.00 26 1010.7
20260505082804 68 139 0.0 6.1 0.00 0.00 0.00 26 1007.0
20260505082426 68 310 0.0 2.6 0.00 0.00 0.00 25 1010.6
20260505082304 68 299 0.0 6.1 0.00 0.00 0.00 25 1006.9
20260505081923 68 231 0.0 0.9 0.00 0.00 0.00 26 1010.8
20260505081804 68 211 0.0 4.3 0.00 0.00 0.00 26 1007.0
20260505081420 68 245 0.0 0.9 0.00 0.00 0.00 25 1010.8
20260505081304 68 261 0.9 4.3 0.00 0.00 0.00 25 1006.9
20260505080916 68 47 0.0 1.7 0.00 0.00 0.00 25 1010.9
20260505080803 68 227 0.0 1.7 0.00 0.00 0.00 25 1007.2
20260505080413 68 235 0.0 0.0 0.00 0.00 0.00 25 1010.8
20260505075908 68 260 0.0 0.0 0.00 0.00 0.00 25 1011.1
20260505075804 69 189 0.0 1.7 0.00 0.00 0.00 25 1007.3
20260505075405 69 272 0.0 1.7 0.00 0.00 0.00 25 1011.4
20260505075304 69 277 0.0 6.1 0.00 0.00 0.00 25 1007.4
20260505074903 69 259 0.0 0.9 0.00 0.00 0.00 25 1011.4
20260505074804 69 244 0.0 6.1 0.00 0.00 0.00 25 1007.3
20260505074400 69 171 0.0 0.9 0.00 0.00 0.00 25 1011.4
20260505074304 69 280 0.0 5.2 0.00 0.00 0.00 25 1007.3
20260505073857 69 198 0.0 0.0 0.00 0.00 0.00 25 1011.2
20260505073804 69 282 0.0 5.2 0.00 0.00 0.00 25 1007.3
20260505073355 69 216 0.0 0.0 0.00 0.00 0.00 25 1011.2
20260505073304 69 241 0.0 4.3 0.00 0.00 0.00 25 1007.3
20260505072852 69 169 0.0 0.9 0.00 0.00 0.00 25 1011.2
20260505072804 69 317 0.0 4.3 0.00 0.00 0.00 25 1007.4
20260505072348 69 249 0.0 0.0 0.00 0.00 0.00 25 1011.3
20260505072305 69 267 0.0 4.3 0.00 0.00 0.00 25 1007.5
20260505071844 69 263 0.0 0.0 0.00 0.00 0.00 24 1011.0
20260505071804 69 214 0.9 2.6 0.00 0.00 0.00 25 1007.3
20260505071340 69 220 0.0 0.9 0.00 0.00 0.00 25 1011.0
20260505071304 69 264 0.0 2.6 0.00 0.00 0.00 25 1007.2
20260505070839 70 236 0.0 0.0 0.00 0.00 0.00 24 1011.1
20260505070804 70 262 0.0 12.2 0.00 0.00 0.00 24 1007.3
20260505070335 70 226 0.0 0.0 0.00 0.00 0.00 24 1011.0
20260505070304 70 140 0.0 12.2 0.00 0.00 0.00 24 1007.4
20260505065830 70 261 0.9 12.2 0.00 0.00 0.00 24 1011.1
20260505065804 69 288 0.0 12.2 0.00 0.00 0.00 24 1007.5
20260505065327 69 259 0.0 0.9 0.00 0.00 0.00 24 1011.0
20260505065304 69 229 0.9 7.0 0.00 0.00 0.00 24 1007.5
20260505064824 70 212 0.0 2.6 0.00 0.00 0.00 24 1011.0
20260505064804 69 295 0.9 7.0 0.00 0.00 0.00 24 1007.2
20260505064321 69 7 0.0 2.6 0.00 0.00 0.00 24 1011.1
20260505064303 70 262 0.0 7.0 0.00 0.00 0.00 24 1007.4
20260505063819 70 243 0.0 0.9 0.00 0.00 0.00 24 1011.0
20260505063804 70 157 0.9 7.0 0.00 0.00 0.00 24 1007.3
20260505063315 70 301 0.0 0.9 0.00 0.00 0.00 24 1011.4
20260505063303 70 235 0.0 10.4 0.00 0.00 0.00 24 1007.3
20260505062811 70 277 0.0 4.3 0.00 0.00 0.00 24 1011.2
20260505062804 70 257 0.0 10.4 0.00 0.00 0.00 24 1007.5
20260505062309 70 190 0.0 0.0 0.00 0.00 0.00 24 1011.3
20260505062304 70 210 0.0 10.4 0.00 0.00 0.00 24 1007.7
20260505061806 70 283 0.9 1.7 0.00 0.00 0.00 24 1011.7
20260505061304 70 226 0.9 5.2 0.00 0.00 0.00 24 1011.3
20260505060803 70 248 0.0 8.7 0.00 0.00 0.00 24 1007.4
20260505060801 70 250 0.0 0.9 0.00 0.00 0.00 24 1011.2
20260505060304 70 230 0.0 12.2 0.00 0.00 0.00 24 1007.4
20260505060258 70 204 0.0 0.0 0.00 0.00 0.00 24 1011.3
20260505055803 70 196 0.0 12.2 0.00 0.00 0.00 24 1007.4
20260505055753 70 172 0.0 6.1 0.00 0.00 0.00 24 1011.3
20260505055304 70 167 0.9 12.2 0.00 0.00 0.00 24 1007.4
20260505055250 70 230 0.0 12.2 0.00 0.00 0.00 24 1011.4
20260505054803 70 217 0.0 12.2 0.00 0.00 0.00 24 1007.6
20260505054747 70 231 0.9 2.6 0.00 0.00 0.00 24 1011.3
20260505054303 70 219 0.0 12.2 0.00 0.00 0.00 24 1007.5
20260505054245 70 226 1.7 9.6 0.00 0.00 0.00 24 1011.1
20260505053803 71 236 0.9 12.2 0.00 0.00 0.00 23 1007.5
20260505053743 71 244 0.9 2.6 0.00 0.00 0.00 23 1011.6
20260505053303 71 233 0.9 19.1 0.00 0.00 0.00 23 1007.6
20260505053239 71 233 0.0 7.0 0.00 0.00 0.00 23 1011.4
20260505052804 71 275 0.0 19.1 0.00 0.00 0.00 23 1007.5
20260505052736 71 277 0.0 7.0 0.00 0.00 0.00 23 1011.3
20260505052304 71 247 1.7 19.1 0.00 0.00 0.00 23 1007.5
20260505052234 71 253 0.9 14.8 0.00 0.00 0.00 23 1011.2
20260505051804 71 228 0.9 7.0 0.00 0.00 0.00 23 1007.6
20260505051730 71 228 1.7 7.0 0.00 0.00 0.00 23 1011.4
20260505051304 71 260 0.0 8.7 0.00 0.00 0.00 23 1007.4
20260505051229 71 261 0.0 0.9 0.00 0.00 0.00 23 1011.2
20260505050806 71 175 0.9 8.7 0.00 0.00 0.00 23 1007.5
20260505050726 71 142 0.0 5.2 0.00 0.00 0.00 23 1011.3
20260505050304 71 266 0.9 13.9 0.00 0.00 0.00 23 1007.5
20260505050224 71 266 0.0 7.8 0.00 0.00 0.00 23 1011.3
20260505041654 72 235 0.9 19.1 0.00 0.00 0.00 23 1011.2
20260505041303 72 230 2.6 18.2 0.00 0.00 0.00 23 1007.4
20260505041151 72 230 1.7 18.2 0.00 0.00 0.00 23 1011.2
20260505040803 72 218 0.9 7.0 0.00 0.00 0.00 23 1007.6
20260505040648 72 214 0.9 6.1 0.00 0.00 0.00 23 1011.4
20260505040303 72 210 0.0 10.4 0.00 0.00 0.00 23 1007.8
20260505040146 72 202 0.0 1.7 0.00 0.00 0.00 23 1011.6
20260505035804 72 190 0.9 12.2 0.00 0.00 0.00 23 1007.7
20260505035642 73 198 1.7 6.1 0.00 0.00 0.00 23 1011.7
20260505035304 73 258 0.9 17.4 0.00 0.00 0.00 22 1007.6
20260505035138 73 300 1.7 9.6 0.00 0.00 0.00 22 1011.4
20260505034635 73 199 0.0 11.3 0.00 0.00 0.00 22 1011.4
20260505034304 74 249 2.6 17.4 0.00 0.00 0.00 21 1007.3
20260505034132 74 232 4.3 17.4 0.00 0.00 0.00 21 1011.3
20260505033804 74 231 2.6 14.8 0.00 0.00 0.00 21 1007.6
20260505033628 74 205 2.6 14.8 0.00 0.00 0.00 21 1011.3
20260505033304 74 250 1.7 15.6 0.00 0.00 0.00 20 1007.5
20260505033127 74 243 1.7 7.0 0.00 0.00 0.00 20 1011.4
20260505032804 74 207 0.9 17.4 0.00 0.00 0.00 20 1007.5
20260505032625 74 240 0.9 6.1 0.00 0.00 0.00 20 1011.2
20260505032304 74 301 4.3 17.4 0.00 0.00 0.00 19 1007.5
20260505032121 74 268 6.1 17.4 0.00 0.00 0.00 19 1011.2
20260505031804 74 269 2.6 13.9 0.00 0.00 0.00 19 1007.3
20260505031618 74 213 1.7 13.9 0.00 0.00 0.00 18 1011.2
20260505031114 75 230 5.2 12.2 0.00 0.00 0.00 18 1011.2
20260505030804 74 171 0.0 12.2 0.00 0.00 0.00 17 1007.5
20260505030611 74 225 0.0 12.2 0.00 0.00 0.00 17 1011.2
20260505030304 74 199 0.9 13.0 0.00 0.00 0.00 17 1007.2
20260505030107 75 176 0.0 6.1 0.00 0.00 0.00 17 1011.1
20260505025804 75 240 1.7 13.0 0.00 0.00 0.00 17 1007.3
20260505025603 75 243 1.7 6.1 0.00 0.00 0.00 17 1011.1
20260505025305 75 251 2.6 13.0 0.00 0.00 0.00 16 1007.2
20260505025102 75 197 1.7 8.7 0.00 0.00 0.00 16 1010.9
20260505024804 75 251 1.7 13.9 0.00 0.00 0.00 16 1007.3
20260505024559 75 294 0.0 7.8 0.00 0.00 0.00 16 1010.9
20260505024303 75 270 0.0 13.9 0.00 0.00 0.00 16 1007.2
20260505024056 76 239 0.0 7.8 0.00 0.00 0.00 16 1010.8
20260505023553 76 246 2.6 13.0 0.00 0.00 0.00 16 1011.0
20260505023050 76 221 1.7 13.9 0.00 0.00 0.00 16 1010.8
20260505022548 76 253 1.7 11.3 0.00 0.00 0.00 15 1010.7
20260505022304 76 221 0.9 13.9 0.00 0.00 0.00 15 1007.0
20260505022045 76 273 0.0 6.1 0.00 0.00 0.00 15 1010.6
20260505021804 76 218 0.9 13.9 0.00 0.00 0.00 15 1007.0
20260505021542 77 237 0.0 13.9 0.00 0.00 0.00 15 1010.9
20260505021304 77 298 1.7 13.9 0.00 0.00 0.00 15 1007.0
20260505021038 77 230 2.6 8.7 0.00 0.00 0.00 15 1010.8
20260505020804 77 282 1.7 11.3 0.00 0.00 0.00 15 1007.1
20260505020538 77 245 0.9 7.0 0.00 0.00 0.00 15 1010.8
20260505020304 77 260 1.7 11.3 0.00 0.00 0.00 15 1007.2
20260505020035 77 227 1.7 5.2 0.00 0.00 0.00 15 1010.8
20260505015803 77 209 0.9 12.2 0.00 0.00 0.00 15 1007.1
20260505015533 78 227 0.0 7.0 0.00 0.00 0.00 15 1010.8
20260505015304 78 180 0.9 14.8 0.00 0.00 0.00 14 1007.1
20260505015029 78 290 1.7 12.2 0.00 0.00 0.00 14 1010.8
20260505014804 78 339 0.9 14.8 0.00 0.00 0.00 14 1007.0
20260505014526 78 281 0.9 13.0 0.00 0.00 0.00 14 1010.9
20260505014304 78 226 1.7 15.6 0.00 0.00 0.00 14 1006.9
20260505014023 79 246 2.6 14.8 0.00 0.00 0.00 14 1010.8
20260505013804 79 243 1.7 17.4 0.00 0.00 0.00 14 1006.9
20260505013520 79 234 4.3 15.6 0.00 0.00 0.00 14 1010.6
20260505013304 79 230 3.5 17.4 0.00 0.00 0.00 14 1007.0
20260505013018 79 240 0.9 12.2 0.00 0.00 0.00 14 1010.7
20260505012804 79 250 3.5 12.2 0.00 0.00 0.00 14 1006.8
20260505012516 79 289 0.0 12.2 0.00 0.00 0.00 14 1010.6
20260505012013 80 254 2.6 8.7 0.00 0.00 0.00 14 1010.7
20260505011804 80 234 0.9 15.6 0.00 0.00 0.00 14 1006.7
20260505011508 80 232 0.0 9.6 0.00 0.00 0.00 14 1010.6
20260505011303 80 180 1.7 17.4 0.00 0.00 0.00 14 1006.8
20260505011005 80 266 0.9 7.8 0.00 0.00 0.00 14 1010.7
20260505010804 80 225 0.9 17.4 0.00 0.00 0.00 14 1006.8
20260505010501 80 219 4.3 15.6 0.00 0.00 0.00 13 1010.3
20260505010304 81 273 3.5 20.9 0.00 0.00 0.00 13 1006.8
20260505005957 81 275 0.9 7.0 0.00 0.00 0.00 13 1010.6
20260505005454 81 321 5.2 20.9 0.00 0.00 0.00 13 1010.8
20260505005304 81 254 4.3 20.0 0.00 0.00 0.00 13 1006.9
20260505004952 82 241 0.0 9.6 0.00 0.00 0.00 13 1010.4
20260505004803 82 173 0.9 18.2 0.00 0.00 0.00 13 1006.9
20260505004448 82 249 2.6 7.0 0.00 0.00 0.00 13 1010.7
20260505003945 82 308 0.0 13.0 0.00 0.00 0.00 13 1010.6
20260505003804 82 232 0.9 14.8 0.00 0.00 0.00 13 1007.0
20260505003442 82 250 0.0 8.7 0.00 0.00 0.00 13 1010.8
20260505003304 82 266 0.0 17.4 0.00 0.00 0.00 13 1007.0
20260505002938 82 274 0.0 5.2 0.00 0.00 0.00 13 1010.9
20260505002803 82 217 2.6 24.3 0.00 0.00 0.00 13 1006.9
20260505002435 83 287 5.2 14.8 0.00 0.00 0.00 13 1010.7
20260505002304 83 239 2.6 24.3 0.00 0.00 0.00 13 1007.0
20260505001933 83 206 7.0 15.6 0.00 0.00 0.00 13 1010.9
20260505001803 83 259 7.0 24.3 0.00 0.00 0.00 12 1007.0
20260505001430 83 250 0.9 15.6 0.00 0.00 0.00 13 1010.9
20260505001304 83 242 3.5 21.7 0.00 0.00 0.00 12 1007.2
20260505000927 83 240 4.3 21.7 0.00 0.00 0.00 12 1010.9
20260505000804 83 243 1.7 21.7 0.00 0.00 0.00 13 1006.8
20260505000427 83 162 3.5 20.0 0.00 0.00 0.00 12 1010.9
20260505000303 83 245 3.5 19.1 0.00 0.00 0.00 12 1006.9
20260504235922 84 248 2.6 13.0 0.00 0.00 0.00 12 1010.9
20260504235419 84 303 4.3 18.2 0.00 0.00 0.00 12 1010.8
20260504235304 84 231 0.9 18.2 0.00 0.00 0.00 12 1007.0
20260504234915 84 257 0.9 11.3 0.00 0.00 0.00 12 1011.0
20260504234804 84 205 1.7 17.4 0.00 0.00 0.00 12 1007.2
20260504234413 84 222 0.0 13.9 0.00 0.00 0.00 13 1010.7
20260504234304 84 270 0.9 17.4 0.00 0.00 0.00 13 1007.1
20260504233909 84 299 5.2 17.4 0.00 0.00 0.00 14 1010.6
20260504233405 84 216 1.7 15.6 0.00 0.00 0.00 17 1010.7
20260504233304 84 44 2.6 18.2 0.00 0.00 0.00 17 1007.0
20260504232902 84 270 0.9 13.0 0.00 0.00 0.00 18 1010.9
20260504232804 84 239 0.0 20.9 0.00 0.00 0.00 19 1007.1
20260504232359 84 268 0.0 4.3 0.00 0.00 0.00 19 1010.6
20260504232304 84 258 2.6 20.9 0.00 0.00 0.00 20 1007.2
20260504231856 84 279 3.5 15.6 0.00 0.00 0.00 19 1011.0
20260504231804 84 286 0.9 17.4 0.00 0.00 0.00 20 1006.9
20260504231352 84 260 0.9 2.6 0.00 0.00 0.00 19 1010.8
20260504231303 84 287 0.9 13.9 0.00 0.00 0.00 19 1007.0
20260504230848 84 235 3.5 13.9 0.00 0.00 0.00 19 1011.0
20260504230804 84 182 1.7 13.9 0.00 0.00 0.00 20 1007.2
20260504230346 84 250 2.6 9.6 0.00 0.00 0.00 20 1010.9
20260504225845 84 233 0.0 9.6 0.00 0.00 0.00 19 1011.1
20260504225804 85 240 0.9 15.6 0.00 0.00 0.00 19 1007.2
20260504225341 85 195 0.0 12.2 0.00 0.00 0.00 19 1010.9
20260504225304 85 254 2.6 15.6 0.00 0.00 0.00 19 1007.4
20260504224839 85 307 0.0 11.3 0.00 0.00 0.00 19 1011.1
20260504224804 85 273 0.9 15.6 0.00 0.00 0.00 19 1007.3
20260504224335 85 258 0.0 5.2 0.00 0.00 0.00 19 1011.1
20260504223832 85 268 5.2 15.6 0.00 0.00 0.00 18 1011.1
20260504223327 85 297 2.6 15.6 0.00 0.00 0.00 18 1011.1
20260504222824 85 221 1.7 7.8 0.00 0.00 0.00 18 1011.3
20260504222804 85 274 2.6 20.9 0.00 0.00 0.00 18 1007.5
20260504222321 86 223 2.6 20.9 0.00 0.00 0.00 18 1011.2
20260504222305 86 216 4.3 17.4 0.00 0.00 0.00 17 1007.4
20260504221820 86 302 2.6 12.2 0.00 0.00 0.00 16 1011.4
20260504221803 86 292 5.2 26.1 0.00 0.00 0.00 16 1007.7
20260504221316 86 275 0.9 9.6 0.00 0.00 0.00 16 1011.4
20260504221304 86 250 0.9 26.1 0.00 0.00 0.00 15 1007.5
20260504220813 86 326 0.0 26.1 0.00 0.00 0.00 16 1011.7
20260504220804 86 116 4.3 18.2 0.00 0.00 0.00 15 1007.9
20260504220310 87 329 5.2 14.8 0.00 0.00 0.00 15 1011.6
20260504215807 86 248 0.0 13.0 0.00 0.00 0.00 15 1011.8
20260504215804 86 186 0.9 26.9 0.00 0.00 0.00 16 1007.8
20260504215304 86 246 3.5 26.9 0.00 0.00 0.00 17 1011.6
20260504214804 86 235 5.2 19.1 0.00 0.00 0.00 18 1008.0
20260504214759 85 235 5.2 11.3 0.00 0.00 0.00 17 1011.7